GFSFLT2_sfc_temp_000.txt.gz
Temp
81 84 78 70 61 67 57 50 53 57 65 73 74 76 79 80 79 80 81 80 80 81 80 80 80 79 78 76 75 73 71 68
82 80 78 77 74 60 54 49 46 54 58 59 65 70 74 76 76 78 81 80 81 81 80 80 81 80 80 78 76 75 73 72
70 68 70 68 63 61 60 54 50 48 54 66 70 72 72 75 80 76 78 80 80 81 82 80 82 80 79 78 76 75 74 72
68 76 79 73 68 62 56 53 52 53 56 72 73 73 77 78 78 76 79 80 81 82 82 80 80 79 78 78 77 76 75 70
60 64 68 71 68 64 58 55 53 52 56 72 72 70 74 73 74 75 76 77 81 82 81 80 80 78 78 78 77 75 73 70
61 60 67 65 70 68 63 54 53 56 61 65 70 71 71 73 74 74 74 77 79 80 81 80 80 79 78 77 77 73 71 71
65 75 73 76 74 69 64 64 62 63 64 66 68 71 72 75 76 75 74 72 78 80 80 79 79 79 77 77 74 73 72 71
69 72 76 73 76 75 74 71 66 66 64 71 74 75 72 77 76 74 74 74 75 79 80 79 80 78 76 76 74 72 71 71
57 67 70 65 68 72 72 73 73 63 70 71 68 72 72 73 74 75 76 76 73 74 74 80 81 80 76 75 72 70 69 69
56 58 52 67 75 78 70 70 69 71 71 72 72 71 71 72 74 76 78 77 74 73 74 80 83 79 74 70 70 70 68 69
51 51 58 66 69 70 69 67 70 67 71 73 74 73 69 75 76 76 76 75 76 74 72 73 80 78 73 69 69 69 68 68
50 52 50 56 68 73 71 56 71 70 69 71 72 63 65 71 76 76 76 77 77 76 71 70 74 74 73 69 68 67 68 70
47 47 53 65 68 72 55 56 67 71 69 69 69 67 70 72 75 75 77 78 77 74 74 71 73 73 69 68 68 68 69 70
48 49 47 68 68 60 61 64 70 70 70 69 67 69 71 74 76 76 74 76 76 74 70 72 75 73 67 67 65 66 65 65
50 49 57 62 63 60 62 65 68 69 71 71 71 70 72 73 72 73 75 75 74 70 66 67 69 66 62 61 64 64 63 63
54 59 59 62 65 67 67 66 68 69 68 69 68 73 74 71 71 69 66 67 66 65 63 61 64 64 64 65 64 63 62 62
54 59 60 65 66 68 69 70 70 70 71 69 70 69 69 68 65 64 63 63 64 64 63 61 63 63 64 64 63 62 63 63
50 56 56 57 61 65 66 66 67 67 71 72 72 69 69 69 65 62 62 62 62 63 63 62 62 61 61 63 62 60 59 63
55 57 59 64 67 69 69 70 71 69 66 65 69 69 70 65 63 62 62 63 63 62 62 62 61 61 63 62 63 62 62 62

GFSFLT2_sfc_temp_006.txt.gz
Temp
72 73 73 60 55 61 50 43 47 50 57 69 72 71 71 74 74 75 77 77 77 78 77 77 76 76 75 74 74 73 73 72
72 70 69 68 66 56 48 43 40 49 51 57 63 68 68 69 72 75 77 77 77 78 78 78 79 79 77 77 75 74 73 72
64 65 65 60 56 53 53 49 45 44 50 61 67 69 70 69 75 75 76 76 77 78 79 79 80 80 78 77 76 74 73 72
59 64 69 70 62 59 57 47 46 48 53 68 69 69 68 71 74 72 74 76 76 77 79 78 79 80 79 78 77 77 75 71
53 57 59 60 59 55 53 50 46 50 54 67 65 67 66 67 69 69 70 71 74 75 76 77 77 78 79 78 78 78 75 70
56 60 61 58 62 59 58 49 50 52 59 65 67 66 66 66 68 68 70 70 71 73 74 76 76 76 77 78 79 77 74 71
68 64 64 64 63 60 58 58 58 63 59 66 68 67 68 70 68 68 67 68 70 72 73 72 72 73 75 77 77 75 72 71
63 67 65 65 65 64 63 61 62 61 61 68 69 67 67 68 68 68 68 71 71 72 71 71 72 71 74 75 76 75 72 71
55 58 58 53 67 65 64 63 65 59 67 67 65 68 69 67 69 71 71 71 68 70 71 72 71 72 72 74 75 73 72 71
57 50 43 63 66 73 70 65 66 65 67 66 68 69 69 68 71 71 69 69 68 69 69 70 71 72 72 71 72 72 71 71
47 46 53 59 62 65 67 63 64 64 66 68 69 69 66 68 70 69 70 69 70 71 70 69 70 71 70 69 70 70 70 69
44 46 47 54 61 65 63 57 64 64 64 64 64 62 61 65 70 69 69 70 70 72 72 71 70 70 69 68 68 69 70 70
46 45 50 57 61 64 58 55 60 62 64 66 61 63 67 68 68 69 69 71 72 71 70 70 69 69 67 66 67 69 69 70
47 47 45 60 61 59 61 60 61 64 62 62 62 64 65 67 67 68 68 70 71 70 71 70 68 69 66 66 67 67 67 66
49 48 54 56 55 59 62 66 65 62 63 64 65 64 66 65 66 65 66 66 67 68 67 66 68 68 65 64 66 65 64 63
51 55 55 56 59 61 61 61 63 63 63 64 62 64 63 65 65 64 65 65 65 65 63 62 64 64 64 64 65 64 63 63
51 55 57 60 59 58 61 63 63 63 63 62 63 61 63 62 62 62 62 62 63 62 62 62 63 63 64 64 64 63 63 62
48 56 56 55 59 61 61 61 62 62 62 62 62 60 62 60 60 61 61 62 61 61 62 62 62 63 64 65 66 65 63 61
52 54 57 59 62 64 61 61 63 62 60 60 60 60 61 60 59 60 61 62 62 61 61 61 62 63 63 63 64 64 63 60

GFSFLT2_sfc_temp_009.txt.gz
Temp
81 83 83 74 70 83 73 65 67 71 72 79 84 84 85 86 87 85 86 88 87 87 86 85 84 83 83 82 81 82 82 81
80 84 80 79 82 70 70 59 56 66 66 74 80 84 86 82 85 86 87 86 88 88 87 87 87 86 85 84 83 83 83 83
75 75 75 74 72 71 76 71 64 61 68 81 82 85 87 85 86 87 86 86 88 87 88 87 88 87 86 85 84 83 83 83
71 79 81 82 77 76 69 62 68 69 71 86 84 88 89 90 88 88 86 85 87 87 87 88 87 88 87 87 86 86 85 82
65 74 77 73 77 79 78 76 67 65 70 85 82 80 83 83 86 83 83 84 85 86 85 86 87 87 88 87 89 89 86 84
63 67 75 70 73 75 75 69 69 69 75 81 84 80 84 83 82 82 80 81 83 84 84 85 85 84 85 87 89 89 88 84
72 76 76 75 74 75 70 74 70 75 73 82 84 85 86 88 83 79 79 80 81 82 82 82 83 83 84 86 87 88 85 83
65 73 75 72 76 76 75 77 74 79 76 87 89 87 83 83 80 79 79 80 81 82 82 81 82 82 83 83 85 85 83 81
61 71 70 64 73 75 76 79 77 72 80 88 82 81 83 85 82 81 82 82 82 82 82 82 83 83 82 82 84 82 80 80
62 64 53 72 82 82 78 79 80 82 82 83 84 86 84 83 84 84 85 85 83 84 83 83 86 86 84 84 81 81 79 79
56 60 67 71 74 75 75 75 82 78 82 83 82 81 78 78 83 85 83 82 83 85 84 81 82 83 82 81 81 80 79 78
57 53 54 64 68 71 71 69 74 75 77 80 79 78 80 76 81 83 84 85 83 83 82 82 82 83 80 81 80 79 80 79
56 54 64 63 66 70 64 71 72 75 76 76 75 75 74 78 78 80 80 80 82 84 83 82 81 83 81 80 79 81 81 79
53 53 55 65 66 66 68 71 73 73 73 72 73 75 76 77 78 79 79 79 83 81 80 80 80 81 78 76 76 77 77 76
53 54 62 65 62 68 74 72 73 73 75 73 73 73 75 74 75 75 76 76 79 80 76 77 77 78 75 74 74 75 74 72
54 54 58 63 67 69 69 69 71 73 72 74 71 72 73 74 74 74 75 75 77 77 75 72 73 74 72 71 74 73 71 71
59 58 61 63 64 66 67 69 70 71 71 69 70 69 72 71 71 72 72 73 74 75 73 70 72 72 73 73 73 72 72 72
60 58 60 60 63 66 63 64 67 69 68 69 70 69 70 67 69 68 69 72 71 72 71 69 71 70 71 72 73 72 71 72
57 61 61 64 64 66 65 67 68 66 67 67 68 71 70 69 68 66 73 73 72 71 71 71 71 71 72 73 73 72 72 71

GFSFLT2_sfc_temp_015.txt.gz
Temp
92 93 91 86 81 92 82 84 78 82 87 95 99 99 100 102 103 104 104 103 102 101 100 98 96 94 93 91 89 89 90 89
91 93 92 88 94 81 84 68 67 77 80 82 89 91 97 98 101 103 105 104 104 102 101 100 99 97 96 94 90 90 91 90
88 84 82 84 84 87 86 82 72 70 79 95 92 94 95 98 102 104 104 104 104 104 103 101 100 99 97 95 93 91 92 91
81 91 93 90 85 86 79 72 80 79 81 99 99 99 99 100 103 106 106 105 105 106 104 102 100 100 98 97 95 94 93 91
75 84 89 83 86 88 88 86 76 74 79 99 100 99 100 100 102 103 105 106 105 106 104 103 101 100 101 99 99 99 95 94
72 75 84 79 82 86 86 79 78 79 82 90 94 95 98 99 101 103 104 100 104 104 103 104 101 98 99 101 102 101 99 96
82 84 85 84 83 84 81 82 78 82 83 89 93 95 98 100 101 101 102 101 99 101 101 99 98 97 98 101 100 101 98 97
76 83 83 80 84 85 84 84 84 85 84 97 98 100 99 99 99 99 100 103 100 99 99 99 98 98 98 97 100 99 96 96
68 79 79 72 81 83 85 87 86 79 85 94 93 95 97 99 100 99 100 103 103 99 98 99 98 98 98 96 98 97 95 96
70 73 59 79 90 88 85 87 90 89 90 92 94 97 99 101 101 100 102 103 104 103 100 99 101 101 99 98 94 94 92 92
66 67 73 77 79 80 77 79 91 89 92 95 96 97 95 102 104 103 104 106 107 105 102 99 99 99 97 95 93 92 91 90
70 63 61 75 80 85 84 72 90 90 89 92 95 86 92 101 104 105 105 106 106 103 102 99 98 99 95 93 91 90 91 90
68 66 73 77 81 84 68 72 82 85 85 87 89 95 99 101 103 104 102 102 103 100 98 95 96 98 92 92 90 92 92 91
70 64 61 79 81 74 74 80 84 86 87 87 91 97 95 93 93 96 97 98 98 95 93 94 95 93 90 89 91 92 91 90
70 68 73 77 77 79 81 81 83 86 90 92 93 91 91 90 90 92 92 93 95 93 90 91 91 91 88 88 90 89 87 86
72 71 73 75 79 80 81 81 84 87 89 90 88 88 88 88 90 90 90 89 91 89 88 87 89 89 87 86 87 86 84 78
69 70 72 74 76 78 79 81 79 77 77 79 81 80 81 82 84 87 87 88 87 85 84 83 84 84 85 85 85 82 76 73
58 71 70 68 73 78 75 76 78 76 74 73 78 76 78 79 82 83 83 84 83 83 82 82 82 81 82 84 82 79 76 76
67 74 72 73 73 74 72 76 78 78 78 78 81 82 79 78 77 71 80 82 82 82 82 82 81 81 82 82 82 81 83 83

GFSFLT2_sfc_temp_021.txt.gz
Temp
85 86 83 71 68 75 59 61 56 65 70 80 85 88 89 87 92 92 91 93 92 91 90 87 87 84 84 80 81 81 81 80
83 86 84 78 75 63 69 53 53 64 63 67 73 81 81 82 84 89 91 94 93 91 90 88 89 87 85 82 81 81 82 81
77 75 73 73 72 68 65 67 57 54 63 74 76 82 81 85 90 88 94 94 93 92 91 89 90 88 85 83 82 81 81 82
69 80 85 81 72 67 61 52 57 61 64 81 84 84 88 88 90 86 86 95 94 93 92 88 88 88 86 83 82 82 83 82
63 72 79 76 78 73 73 61 57 52 64 86 86 81 85 84 84 88 85 86 93 93 91 89 88 88 87 85 83 84 83 82
61 65 68 67 75 77 72 64 64 66 67 75 75 77 86 85 87 90 87 85 90 92 91 91 89 88 88 87 86 84 83 82
73 75 75 75 75 77 71 72 63 67 68 73 76 76 78 84 83 87 86 82 82 90 89 89 88 87 88 88 88 87 84 82
67 76 76 73 77 78 78 77 74 74 72 74 77 80 82 82 87 86 86 86 85 87 90 88 88 86 87 87 88 88 84 83
55 67 67 65 73 75 75 79 76 69 76 77 77 79 82 82 83 84 85 86 84 83 87 89 88 88 86 87 88 87 85 83
56 58 50 64 78 81 78 77 79 76 76 77 76 77 80 83 84 84 83 86 88 87 84 85 90 90 89 88 86 85 83 83
50 55 58 69 73 73 71 72 76 73 77 79 78 75 74 79 84 84 89 89 87 87 86 86 88 90 88 86 85 85 83 82
51 49 50 61 76 82 79 60 75 75 74 75 76 64 68 74 81 81 84 88 93 93 85 85 84 89 88 86 86 83 85 84
54 52 58 69 80 80 59 59 73 75 74 73 68 70 75 79 78 78 82 82 88 85 82 86 82 86 87 87 86 88 86 83
55 49 48 73 74 68 64 70 73 74 75 72 71 75 76 79 79 79 77 81 81 81 80 79 84 86 83 83 85 84 81 83
57 57 65 70 70 72 73 70 70 70 71 74 73 70 71 75 77 77 78 78 78 77 77 76 80 85 80 77 81 80 80 79
55 63 68 70 73 72 71 69 70 71 70 70 65 67 67 69 72 74 75 75 77 78 76 74 76 77 78 79 80 79 77 75
54 58 58 67 69 69 69 70 68 68 67 66 65 64 64 64 66 70 71 73 74 75 75 74 76 76 78 79 78 74 73 72
49 52 53 57 63 67 67 67 68 66 64 64 63 62 63 62 64 66 69 69 69 72 73 74 74 73 73 75 74 71 69 69
54 55 55 58 64 66 67 68 69 67 66 63 64 63 62 60 62 63 66 69 70 69 70 71 72 72 72 72 71 70 68 67